QPF
0.00 0.00 0.00 0.00 0.00 0.00 0.00 0.00 0.00 0.00 0.00 0.00 0.00 0.00 0.00 0.00 0.00 0.00 0.00 0.00 0.00 0.00 0.00 0.00 0.00 0.00 0.00 0.00 0.00 0.00 0.00 0.00 0.00 0.00 0.00 0.00 0.00 0.00 0.00 0.00 0.00 0.00 0.00 0.00 0.00
0.00 0.00 0.00 0.00 0.00 0.00 0.00 0.00 0.00 0.00 0.00 0.00 0.00 0.00 0.00 0.00 0.00 0.00 0.00 0.00 0.00 0.00 0.00 0.00 0.00 0.00 0.00 0.00 0.00 0.00 0.00 0.00 0.00 0.00 0.00 0.00 0.00 0.00 0.00 0.00 0.00 0.00 0.00 0.00 0.00
0.00 0.00 0.00 0.00 0.00 0.00 0.00 0.00 0.00 0.00 0.00 0.00 0.00 0.00 0.00 0.00 0.00 0.00 0.00 0.00 0.00 0.00 0.00 0.00 0.00 0.00 0.00 0.00 0.00 0.00 0.00 0.00 0.00 0.00 0.00 0.00 0.00 0.00 0.00 0.00 0.00 0.00 0.00 0.00 0.00
0.00 0.00 0.00 0.00 0.00 0.00 0.00 0.00 0.00 0.00 0.00 0.00 0.00 0.00 0.00 0.00 0.00 0.00 0.00 0.00 0.00 0.00 0.00 0.00 0.00 0.00 0.00 0.00 0.00 0.00 0.00 0.00 0.00 0.00 0.00 0.00 0.00 0.00 0.00 0.00 0.00 0.00 0.00 0.00 0.00
0.00 0.00 0.00 0.00 0.00 0.00 0.00 0.00 0.00 0.00 0.00 0.00 0.00 0.00 0.00 0.00 0.00 0.00 0.00 0.00 0.00 0.00 0.00 0.00 0.00 0.00 0.00 0.00 0.00 0.00 0.00 0.00 0.00 0.00 0.00 0.00 0.00 0.00 0.00 0.00 0.00 0.00 0.00 0.00 0.00
0.00 0.00 0.00 0.00 0.00 0.00 0.00 0.00 0.00 0.00 0.00 0.00 0.00 0.00 0.00 0.00 0.00 0.00 0.00 0.00 0.00 0.00 0.00 0.00 0.00 0.00 0.00 0.00 0.00 0.00 0.00 0.00 0.00 0.00 0.00 0.00 0.00 0.00 0.00 0.00 0.00 0.00 0.00 0.00 0.00
0.00 0.00 0.00 0.00 0.00 0.00 0.00 0.00 0.00 0.00 0.00 0.00 0.00 0.00 0.00 0.00 0.00 0.00 0.00 0.00 0.00 0.00 0.00 0.00 0.00 0.00 0.00 0.00 0.00 0.00 0.00 0.00 0.00 0.00 0.00 0.00 0.00 0.00 0.00 0.00 0.00 0.00 0.00 0.00 0.00
0.00 0.00 0.00 0.00 0.00 0.00 0.00 0.00 0.00 0.00 0.00 0.00 0.00 0.00 0.00 0.00 0.00 0.00 0.00 0.00 0.00 0.00 0.00 0.00 0.00 0.00 0.00 0.00 0.00 0.00 0.00 0.00 0.00 0.00 0.00 0.00 0.00 0.00 0.00 0.00 0.00 0.00 0.00 0.00 0.00
0.00 0.00 0.00 0.00 0.00 0.00 0.00 0.00 0.00 0.00 0.00 0.00 0.00 0.00 0.00 0.00 0.00 0.00 0.00 0.00 0.00 0.00 0.00 0.00 0.00 0.00 0.00 0.00 0.00 0.00 0.00 0.00 0.00 0.00 0.00 0.00 0.00 0.00 0.00 0.00 0.00 0.00 0.00 0.00 0.00
0.00 0.00 0.00 0.00 0.00 0.00 0.00 0.00 0.00 0.00 0.00 0.00 0.00 0.00 0.00 0.00 0.00 0.00 0.00 0.00 0.00 0.00 0.00 0.00 0.00 0.00 0.00 0.00 0.00 0.00 0.00 0.00 0.00 0.00 0.00 0.00 0.00 0.00 0.00 0.00 0.00 0.00 0.00 0.00 0.00
0.01 0.01 0.00 0.00 0.00 0.00 0.00 0.00 0.00 0.00 0.00 0.00 0.00 0.00 0.00 0.00 0.00 0.00 0.00 0.00 0.00 0.00 0.00 0.00 0.00 0.00 0.00 0.00 0.00 0.00 0.00 0.00 0.00 0.00 0.00 0.00 0.00 0.00 0.00 0.00 0.00 0.00 0.00 0.00 0.00
0.00 0.00 0.00 0.00 0.00 0.00 0.00 0.00 0.00 0.00 0.00 0.00 0.00 0.00 0.00 0.00 0.00 0.00 0.00 0.00 0.00 0.00 0.00 0.00 0.00 0.00 0.00 0.00 0.00 0.00 0.00 0.00 0.00 0.00 0.00 0.00 0.00 0.00 0.00 0.00 0.00 0.00 0.00 0.00 0.00
0.01 0.00 0.00 0.00 0.00 0.00 0.00 0.00 0.00 0.00 0.00 0.00 0.00 0.00 0.00 0.00 0.00 0.00 0.00 0.00 0.00 0.00 0.00 0.00 0.00 0.00 0.00 0.00 0.00 0.00 0.00 0.00 0.00 0.00 0.00 0.00 0.00 0.00 0.00 0.00 0.00 0.00 0.00 0.00 0.00
0.06 0.02 0.01 0.01 0.00 0.00 0.00 0.00 0.00 0.00 0.00 0.00 0.00 0.00 0.00 0.00 0.00 0.00 0.00 0.00 0.00 0.00 0.00 0.00 0.00 0.00 0.00 0.00 0.00 0.00 0.00 0.00 0.00 0.00 0.00 0.00 0.00 0.00 0.00 0.00 0.00 0.00 0.00 0.00 0.00
0.04 0.08 0.08 0.04 0.01 0.01 0.00 0.01 0.00 0.02 0.03 0.00 0.00 0.00 0.00 0.00 0.00 0.00 0.00 0.00 0.00 0.00 0.00 0.00 0.00 0.00 0.00 0.00 0.00 0.00 0.00 0.00 0.00 0.00 0.00 0.00 0.00 0.00 0.00 0.00 0.00 0.00 0.00 0.00 0.00
0.00 0.01 0.05 0.01 0.01 0.02 0.01 0.02 0.04 0.08 0.03 0.00 0.00 0.00 0.00 0.00 0.00 0.00 0.00 0.00 0.00 0.00 0.00 0.00 0.00 0.00 0.00 0.00 0.00 0.00 0.00 0.00 0.00 0.00 0.00 0.00 0.00 0.00 0.00 0.00 0.00 0.00 0.00 0.00 0.00
0.00 0.00 0.00 0.00 0.00 0.03 0.13 0.03 0.05 0.14 0.02 0.00 0.00 0.00 0.00 0.00 0.00 0.00 0.00 0.00 0.00 0.00 0.00 0.00 0.00 0.00 0.00 0.00 0.00 0.00 0.00 0.00 0.00 0.00 0.00 0.00 0.00 0.00 0.00 0.00 0.00 0.00 0.00 0.00 0.00
0.00 0.00 0.00 0.00 0.00 0.01 0.09 0.24 0.22 0.04 0.00 0.00 0.00 0.00 0.00 0.00 0.00 0.00 0.00 0.00 0.00 0.00 0.00 0.00 0.00 0.00 0.00 0.00 0.00 0.00 0.00 0.00 0.00 0.00 0.00 0.00 0.00 0.00 0.00 0.00 0.00 0.00 0.00 0.00 0.00
0.00 0.00 0.00 0.00 0.00 0.02 0.05 0.12 0.07 0.00 0.00 0.00 0.00 0.00 0.00 0.00 0.00 0.00 0.00 0.00 0.00 0.00 0.00 0.00 0.00 0.00 0.00 0.00 0.00 0.00 0.00 0.00 0.00 0.00 0.00 0.00 0.00 0.00 0.00 0.00 0.00 0.00 0.00 0.00 0.00
0.00 0.00 0.00 0.00 0.00 0.07 0.04 0.01 0.00 0.00 0.00 0.00 0.00 0.01 0.03 0.01 0.00 0.00 0.00 0.00 0.00 0.00 0.00 0.00 0.00 0.00 0.00 0.00 0.00 0.00 0.00 0.00 0.00 0.00 0.00 0.00 0.00 0.00 0.00 0.00 0.00 0.00 0.00 0.00 0.00
0.00 0.00 0.00 0.00 0.00 0.05 0.04 0.00 0.00 0.00 0.00 0.00 0.00 0.00 0.00 0.00 0.02 0.01 0.00 0.00 0.00 0.00 0.00 0.00 0.00 0.00 0.00 0.00 0.00 0.00 0.00 0.00 0.00 0.00 0.00 0.00 0.00 0.00 0.00 0.00 0.00 0.00 0.00 0.00 0.00
0.00 0.00 0.00 0.00 0.01 0.01 0.00 0.00 0.00 0.00 0.00 0.00 0.00 0.00 0.01 0.01 0.00 0.00 0.00 0.00 0.00 0.00 0.00 0.00 0.00 0.00 0.00 0.00 0.00 0.00 0.00 0.00 0.00 0.00 0.00 0.00 0.00 0.00 0.00 0.00 0.00 0.00 0.00 0.00 0.00
0.00 0.00 0.00 0.01 0.00 0.00 0.00 0.00 0.00 0.00 0.00 0.00 0.00 0.00 0.00 0.00 0.01 0.00 0.00 0.00 0.00 0.00 0.00 0.01 0.04 0.02 0.01 0.00 0.00 0.00 0.00 0.00 0.00 0.00 0.00 0.00 0.00 0.00 0.00 0.00 0.00 0.00 0.00 0.00 0.00
0.00 0.00 0.00 0.01 0.00 0.00 0.00 0.00 0.00 0.00 0.00 0.00 0.00 0.01 0.01 0.01 0.01 0.00 0.00 0.00 0.00 0.00 0.00 0.06 0.15 0.07 0.01 0.00 0.00 0.00 0.00 0.00 0.00 0.00 0.00 0.00 0.00 0.00 0.00 0.00 0.00 0.00 0.00 0.00 0.00
0.01 0.00 0.00 0.00 0.00 0.00 0.00 0.00 0.00 0.00 0.00 0.00 0.00 0.00 0.00 0.02 0.01 0.00 0.00 0.00 0.00 0.00 0.00 0.06 0.13 0.01 0.00 0.00 0.00 0.00 0.00 0.00 0.00 0.00 0.00 0.00 0.00 0.00 0.00 0.00 0.00 0.00 0.00 0.00 0.00
0.02 0.00 0.00 0.00 0.00 0.00 0.00 0.00 0.00 0.00 0.00 0.00 0.00 0.00 0.00 0.00 0.00 0.00 0.01 0.01 0.01 0.01 0.01 0.01 0.02 0.00 0.00 0.00 0.00 0.00 0.00 0.00 0.00 0.00 0.00 0.00 0.00 0.00 0.00 0.00 0.00 0.00 0.00 0.00 0.00
0.08 0.02 0.00 0.00 0.00 0.00 0.00 0.00 0.00 0.00 0.00 0.00 0.00 0.00 0.00 0.00 0.00 0.00 0.00 0.00 0.02 0.04 0.03 0.02 0.04 0.05 0.07 0.00 0.02 0.08 0.01 0.00 0.00 0.00 0.00 0.00 0.00 0.00 0.00 0.00 0.00 0.00 0.00 0.00 0.00
MSLP
1016.13 1016.11 1016.08 1016.06 1015.89 1016.02 1015.87 1015.91 1015.87 1015.68 1015.62 1015.45 1015.06 1015.18 1014.92 1014.29 1013.90 1014.03 1013.32 1013.68 1013.41 1013.63 1013.68 1012.90 1012.83 1012.60 1012.29 1012.01 1012.07 1011.83 1010.40 1009.38 1009.33 1009.83 1010.05 1011.15 1011.49 1012.26 1012.57 1012.63 1013.12 1013.39 1013.55 1014.21 1014.59
1016.30 1016.19 1016.28 1016.03 1015.93 1016.01 1015.90 1015.96 1015.91 1015.76 1015.66 1015.37 1015.09 1015.01 1014.54 1013.99 1013.78 1013.36 1013.67 1013.50 1013.50 1013.70 1013.26 1012.67 1012.29 1012.35 1011.89 1011.87 1011.87 1011.50 1010.45 1009.70 1010.06 1010.25 1010.57 1011.23 1011.45 1011.88 1012.59 1012.42 1012.68 1013.17 1014.07 1014.86 1015.28
1016.42 1016.41 1016.44 1016.19 1016.08 1016.05 1015.97 1015.98 1015.93 1015.77 1015.70 1015.26 1015.07 1014.82 1014.32 1014.08 1013.57 1013.17 1013.47 1013.47 1013.61 1013.60 1013.05 1012.70 1012.36 1012.17 1011.78 1011.77 1011.76 1011.30 1010.74 1010.48 1011.04 1011.36 1011.71 1011.50 1011.75 1012.04 1012.17 1011.77 1011.85 1012.11 1013.02 1014.56 1015.12
1016.30 1016.30 1016.27 1016.20 1016.17 1015.89 1016.03 1016.01 1015.80 1015.86 1015.57 1014.96 1014.77 1014.55 1014.39 1013.96 1013.42 1013.55 1013.49 1013.57 1013.87 1013.36 1013.10 1012.68 1012.30 1012.06 1011.66 1011.66 1011.93 1011.68 1011.55 1011.63 1011.88 1012.37 1012.52 1012.28 1011.87 1011.87 1011.92 1011.43 1011.88 1011.74 1012.16 1013.64 1014.44
1016.15 1016.19 1016.14 1016.12 1015.99 1015.98 1016.08 1015.76 1015.88 1015.53 1015.36 1015.25 1014.76 1014.70 1014.37 1013.53 1012.99 1013.54 1013.38 1013.57 1013.61 1013.42 1012.90 1012.50 1012.03 1011.79 1011.62 1011.71 1012.24 1011.96 1011.97 1012.43 1012.58 1012.98 1012.92 1013.13 1012.38 1011.94 1011.27 1011.43 1011.98 1012.50 1012.92 1013.04 1013.60
1016.21 1016.33 1016.37 1016.27 1016.08 1015.84 1015.69 1015.58 1015.60 1015.58 1015.39 1015.32 1014.91 1014.42 1013.77 1013.54 1013.42 1013.46 1013.51 1013.53 1013.44 1013.15 1013.05 1012.70 1012.07 1012.12 1011.75 1012.09 1012.46 1012.28 1012.37 1012.53 1012.86 1013.02 1013.09 1013.30 1012.44 1012.37 1011.05 1011.13 1011.27 1012.03 1012.37 1012.63 1012.96
1016.00 1016.20 1016.11 1016.03 1015.92 1015.83 1015.71 1015.69 1015.44 1015.24 1015.25 1015.01 1014.70 1013.97 1013.50 1013.80 1013.43 1013.41 1013.57 1013.53 1013.47 1013.34 1013.04 1013.14 1012.80 1012.65 1012.39 1012.73 1013.13 1012.83 1012.47 1012.56 1012.66 1012.88 1013.12 1013.36 1012.39 1011.10 1010.89 1011.40 1011.27 1011.32 1011.72 1011.84 1012.13
1015.92 1016.08 1016.06 1016.16 1015.95 1015.82 1015.60 1015.43 1015.30 1015.12 1015.02 1014.66 1014.44 1013.95 1013.22 1013.79 1013.57 1013.64 1013.67 1013.66 1013.55 1013.55 1013.42 1013.42 1013.08 1013.03 1013.06 1013.38 1013.11 1012.55 1012.45 1011.91 1011.89 1012.89 1013.39 1013.41 1011.27 1010.58 1010.29 1010.72 1010.89 1010.77 1010.70 1010.95 1011.31
1015.89 1016.04 1015.97 1015.92 1015.83 1015.86 1015.60 1015.32 1015.02 1014.83 1014.64 1014.51 1014.21 1013.77 1013.19 1013.82 1013.79 1013.82 1013.88 1013.35 1013.63 1013.75 1013.88 1013.48 1013.18 1013.11 1013.52 1012.88 1012.50 1012.15 1011.19 1011.36 1011.92 1012.77 1012.99 1013.03 1011.07 1010.31 1010.80 1010.81 1010.45 1010.15 1009.97 1010.02 1010.32
1015.60 1015.78 1015.86 1015.73 1015.67 1015.62 1015.13 1014.85 1014.76 1014.73 1014.46 1014.29 1014.10 1013.89 1013.68 1013.66 1013.92 1013.94 1014.00 1013.80 1013.55 1013.73 1013.71 1013.29 1013.09 1012.97 1012.83 1012.33 1011.42 1010.96 1011.35 1011.36 1011.68 1012.62 1013.07 1012.45 1011.34 1010.37 1010.17 1010.34 1010.04 1009.58 1009.25 1009.31 1009.57
1015.52 1015.56 1015.58 1015.61 1015.56 1015.46 1014.79 1014.86 1014.93 1014.49 1014.12 1013.51 1013.67 1013.46 1013.46 1014.33 1014.11 1013.92 1014.14 1014.05 1013.47 1013.56 1013.21 1013.28 1013.12 1012.35 1012.12 1012.09 1011.85 1011.85 1011.48 1011.24 1011.47 1012.78 1013.03 1011.91 1010.80 1009.95 1009.38 1009.10 1008.87 1008.58 1008.53 1008.40 1008.21
1015.79 1015.59 1015.51 1015.50 1015.63 1015.42 1015.05 1014.43 1014.97 1015.23 1014.11 1013.66 1013.87 1013.74 1013.89 1014.11 1014.01 1014.09 1014.44 1013.97 1013.53 1013.24 1013.52 1013.64 1012.82 1012.27 1012.67 1012.55 1012.91 1012.52 1012.21 1011.74 1011.77 1012.92 1013.34 1011.85 1010.06 1009.64 1008.86 1007.98 1007.96 1007.59 1007.35 1007.29 1007.29
1016.01 1015.83 1015.51 1015.54 1015.69 1015.41 1014.94 1015.16 1015.19 1015.04 1014.51 1013.84 1013.69 1013.71 1014.09 1014.19 1013.73 1013.65 1014.22 1013.70 1013.31 1013.20 1013.36 1012.90 1012.82 1012.91 1013.16 1013.41 1013.33 1012.83 1012.56 1012.23 1012.62 1013.28 1012.76 1012.26 1009.56 1008.08 1006.93 1007.09 1007.15 1006.79 1006.65 1006.53 1006.46
1016.25 1016.18 1015.56 1015.65 1016.31 1014.90 1014.79 1015.18 1015.19 1015.01 1014.19 1013.59 1013.69 1013.73 1014.07 1014.10 1014.23 1014.19 1013.89 1013.98 1013.87 1013.44 1013.29 1013.46 1013.31 1013.58 1013.67 1013.31 1013.44 1012.88 1012.87 1013.13 1013.47 1013.63 1012.58 1012.48 1009.40 1007.37 1006.60 1005.98 1005.97 1005.80 1005.84 1005.65 1006.03
1016.40 1016.06 1016.37 1016.07 1015.23 1015.03 1015.02 1015.29 1015.27 1015.03 1014.32 1013.43 1013.81 1014.34 1014.12 1014.04 1014.13 1014.56 1014.72 1014.24 1013.51 1013.67 1013.73 1013.15 1013.67 1013.90 1013.80 1013.50 1013.71 1013.61 1013.77 1013.94 1014.02 1013.79 1013.24 1012.28 1011.23 1007.08 1006.05 1005.63 1005.27 1004.97 1004.96 1005.16 1005.49
1017.00 1016.83 1016.15 1015.84 1015.42 1015.47 1015.08 1015.39 1015.19 1015.55 1013.91 1013.40 1013.71 1013.92 1013.93 1014.13 1014.38 1014.78 1014.64 1014.36 1014.19 1013.94 1013.88 1013.56 1014.28 1014.05 1014.00 1014.52 1014.31 1014.42 1014.40 1014.48 1014.44 1014.19 1012.56 1011.30 1010.41 1006.40 1005.29 1004.66 1004.78 1004.87 1004.94 1005.29 1005.89
1016.99 1017.02 1016.84 1016.13 1015.84 1015.91 1015.69 1015.62 1015.96 1014.83 1013.86 1013.17 1013.31 1013.68 1013.59 1013.98 1014.37 1014.34 1014.19 1013.82 1013.42 1013.64 1012.97 1013.55 1013.87 1014.25 1014.47 1014.76 1015.10 1014.54 1014.25 1013.91 1013.87 1013.83 1011.39 1011.03 1010.12 1006.28 1005.73 1005.19 1005.31 1005.38 1005.11 1005.51 1006.36
1017.02 1016.93 1016.31 1016.00 1016.22 1016.22 1016.08 1016.53 1015.02 1013.43 1012.89 1013.37 1013.31 1013.56 1013.30 1013.56 1013.75 1014.21 1013.88 1013.20 1012.99 1012.46 1012.36 1012.38 1012.85 1013.66 1014.02 1013.19 1013.57 1014.03 1013.49 1012.88 1012.46 1012.71 1011.45 1011.48 1008.47 1005.56 1005.44 1005.37 1005.42 1005.56 1005.67 1005.82 1006.32
1017.20 1016.76 1016.40 1015.83 1016.35 1016.66 1016.56 1015.22 1013.55 1012.74 1012.10 1012.76 1013.24 1012.91 1013.10 1013.40 1013.63 1013.73 1013.30 1012.53 1012.09 1012.43 1012.17 1011.77 1012.47 1012.91 1013.58 1013.50 1013.18 1013.94 1013.51 1012.85 1013.05 1013.58 1012.76 1009.89 1006.62 1005.48 1005.66 1005.67 1005.48 1005.49 1005.74 1006.03 1006.24
1017.03 1016.67 1016.19 1016.04 1016.40 1016.53 1016.21 1014.32 1013.00 1011.98 1012.05 1012.04 1012.03 1012.35 1012.28 1013.03 1013.59 1013.53 1012.69 1011.67 1011.89 1012.08 1012.37 1011.79 1012.40 1013.69 1014.21 1014.30 1013.85 1013.50 1012.93 1013.47 1013.31 1012.80 1011.68 1008.48 1006.78 1004.92 1005.05 1005.11 1005.33 1005.68 1005.70 1005.99 1006.59
1017.12 1016.80 1016.27 1016.23 1016.34 1016.12 1014.78 1013.65 1012.88 1012.44 1012.05 1011.89 1011.61 1011.65 1012.11 1012.95 1013.44 1013.56 1012.45 1012.09 1012.05 1012.07 1012.34 1012.34 1013.07 1014.43 1014.80 1013.82 1012.96 1013.82 1013.42 1013.14 1012.67 1012.11 1010.63 1008.96 1006.05 1004.58 1004.43 1004.88 1005.19 1005.95 1006.37 1006.56 1006.85
1017.10 1016.78 1016.53 1016.45 1016.19 1015.10 1013.97 1013.59 1013.03 1012.54 1012.31 1012.16 1011.91 1011.53 1011.78 1012.55 1013.12 1013.20 1012.59 1012.29 1012.74 1013.03 1012.97 1013.07 1013.21 1013.45 1013.58 1013.40 1013.54 1012.70 1012.15 1012.46 1012.00 1011.60 1011.32 1009.79 1006.05 1004.97 1004.95 1005.24 1005.79 1006.05 1006.46 1006.82 1007.23
1016.94 1016.58 1016.56 1016.54 1015.08 1013.99 1013.65 1013.30 1013.10 1012.69 1012.22 1012.13 1011.94 1011.82 1012.15 1012.29 1013.25 1013.08 1012.59 1012.63 1013.29 1013.69 1013.73 1014.24 1015.02 1014.99 1014.18 1014.20 1013.96 1013.18 1012.17 1012.28 1011.95 1011.91 1010.70 1009.80 1006.63 1004.96 1004.78 1005.50 1005.82 1006.19 1006.40 1006.64 1007.15
1017.07 1016.39 1016.48 1016.52 1014.56 1013.71 1013.45 1013.13 1012.87 1012.85 1012.51 1012.43 1012.08 1011.96 1012.29 1012.43 1012.81 1012.82 1013.09 1013.22 1013.70 1014.02 1014.78 1015.71 1016.19 1015.52 1013.90 1012.38 1012.27 1012.58 1012.35 1012.09 1012.23 1011.74 1009.98 1008.99 1006.68 1004.92 1004.92 1005.43 1005.50 1006.10 1006.52 1006.63 1006.74
1016.76 1015.45 1014.59 1014.93 1014.53 1013.88 1013.38 1012.72 1012.83 1012.79 1012.92 1012.88 1012.57 1012.34 1012.32 1012.70 1012.69 1012.60 1013.21 1013.55 1014.38 1014.87 1015.40 1016.11 1016.08 1015.85 1014.46 1013.52 1012.68 1012.48 1012.19 1011.71 1011.56 1011.11 1010.53 1008.29 1007.85 1005.23 1005.21 1005.60 1005.65 1005.72 1005.89 1005.94 1006.13
1016.05 1015.35 1015.27 1014.36 1013.79 1013.93 1013.70 1012.86 1012.78 1012.62 1012.88 1012.72 1012.67 1012.63 1012.97 1012.87 1012.77 1013.31 1014.07 1014.55 1014.42 1014.80 1015.36 1016.01 1015.80 1015.57 1014.32 1013.54 1012.95 1012.05 1011.72 1010.99 1010.19 1009.90 1009.64 1008.35 1007.23 1005.86 1005.68 1005.73 1005.76 1005.78 1005.83 1005.72 1006.07
1015.74 1015.41 1015.00 1014.01 1013.87 1013.58 1012.96 1012.55 1012.69 1013.50 1013.11 1013.23 1013.29 1013.54 1013.61 1014.01 1014.64 1014.94 1015.41 1015.79 1016.09 1016.35 1016.06 1016.27 1016.20 1015.96 1014.38 1013.70 1013.13 1012.31 1010.60 1009.93 1009.67 1009.27 1008.81 1008.18 1006.43 1006.73 1005.91 1005.73 1005.65 1005.37 1005.75 1005.85 1005.80
Thickness
5616 5622 5627 5634 5641 5645 5651 5656 5659 5666 5670 5675 5683 5684 5690 5702 5709 5712 5716 5720 5724 5725 5727 5735 5734 5735 5738 5733 5735 5736 5727 5726 5733 5729 5735 5737 5728 5730 5734 5728 5726 5729 5729 5728 5732
5610 5616 5620 5629 5637 5640 5647 5652 5657 5663 5667 5673 5680 5683 5692 5702 5707 5711 5713 5718 5721 5722 5726 5727 5727 5730 5728 5728 5730 5727 5725 5733 5743 5745 5737 5735 5734 5732 5723 5726 5725 5726 5727 5724 5724
5604 5609 5614 5622 5629 5636 5643 5648 5653 5659 5663 5672 5677 5682 5690 5696 5700 5706 5712 5715 5717 5719 5725 5728 5729 5727 5722 5727 5725 5729 5723 5738 5735 5738 5734 5735 5730 5734 5725 5724 5733 5731 5732 5722 5720
5600 5606 5612 5618 5623 5632 5637 5643 5650 5654 5660 5670 5676 5681 5686 5694 5686 5703 5709 5711 5710 5717 5719 5720 5721 5715 5717 5714 5722 5715 5725 5728 5728 5726 5724 5724 5735 5728 5728 5735 5739 5745 5743 5730 5722
5596 5601 5608 5614 5620 5626 5630 5639 5644 5652 5658 5663 5672 5675 5683 5688 5695 5699 5705 5706 5707 5711 5712 5713 5714 5716 5709 5717 5713 5714 5719 5719 5722 5719 5722 5720 5723 5727 5733 5742 5739 5734 5731 5732 5729
5588 5593 5599 5607 5614 5621 5629 5636 5641 5646 5653 5657 5665 5673 5682 5677 5692 5695 5698 5702 5703 5706 5706 5710 5713 5715 5714 5710 5706 5715 5714 5716 5716 5718 5719 5712 5722 5720 5736 5744 5741 5734 5731 5733 5731
5584 5588 5595 5601 5607 5615 5622 5628 5636 5644 5649 5655 5662 5672 5677 5679 5687 5690 5693 5695 5699 5700 5699 5704 5709 5704 5710 5697 5702 5705 5703 5709 5714 5717 5715 5712 5712 5723 5739 5734 5733 5736 5735 5737 5737
5577 5582 5589 5593 5601 5608 5616 5624 5631 5638 5644 5652 5658 5666 5671 5676 5681 5684 5687 5688 5695 5697 5697 5700 5705 5699 5696 5696 5696 5697 5700 5699 5717 5709 5709 5706 5713 5732 5744 5736 5731 5737 5741 5741 5740
5569 5575 5582 5588 5595 5600 5608 5617 5625 5633 5641 5646 5654 5658 5664 5670 5671 5676 5680 5683 5685 5688 5688 5695 5696 5690 5686 5687 5686 5692 5697 5701 5705 5706 5705 5701 5714 5734 5731 5728 5730 5738 5743 5745 5745
5565 5568 5575 5582 5588 5594 5604 5612 5619 5625 5634 5639 5645 5648 5655 5659 5663 5668 5673 5677 5677 5677 5677 5682 5684 5680 5682 5684 5677 5690 5686 5696 5697 5697 5692 5699 5706 5726 5735 5729 5730 5739 5746 5746 5744
5559 5562 5569 5576 5581 5587 5600 5606 5613 5619 5625 5636 5638 5642 5648 5648 5657 5661 5663 5664 5672 5670 5665 5670 5667 5667 5682 5685 5688 5685 5690 5692 5703 5692 5684 5699 5710 5722 5734 5739 5739 5743 5745 5749 5753
5548 5555 5560 5568 5573 5580 5590 5599 5600 5605 5615 5624 5626 5632 5638 5642 5642 5648 5653 5653 5656 5654 5658 5656 5657 5680 5675 5678 5667 5673 5675 5684 5697 5683 5674 5693 5707 5718 5729 5739 5742 5747 5751 5754 5757
5540 5547 5553 5558 5564 5572 5581 5585 5590 5597 5602 5613 5618 5623 5626 5632 5639 5642 5644 5648 5649 5649 5647 5655 5663 5667 5663 5656 5656 5666 5669 5679 5676 5671 5680 5677 5700 5724 5744 5743 5743 5751 5755 5757 5759
5530 5536 5546 5550 5554 5570 5576 5577 5581 5587 5595 5607 5606 5614 5617 5624 5625 5631 5641 5639 5636 5639 5645 5645 5654 5649 5649 5656 5659 5658 5674 5668 5660 5656 5663 5674 5673 5717 5734 5742 5746 5751 5752 5758 5757
5522 5530 5532 5541 5554 5560 5566 5566 5571 5578 5564 5597 5595 5604 5609 5614 5621 5617 5624 5627 5632 5629 5633 5641 5636 5635 5641 5651 5654 5654 5654 5653 5650 5650 5652 5664 5648 5703 5734 5725 5741 5751 5755 5758 5758
5509 5515 5526 5531 5543 5546 5554 5556 5563 5554 5552 5583 5589 5591 5595 5600 5602 5605 5609 5618 5622 5621 5621 5631 5626 5635 5641 5634 5642 5639 5639 5640 5639 5640 5639 5666 5661 5693 5723 5737 5743 5747 5751 5752 5747
5498 5503 5509 5521 5533 5534 5540 5546 5539 5537 5570 5580 5581 5584 5590 5588 5588 5595 5599 5603 5610 5602 5616 5619 5620 5624 5627 5622 5622 5631 5632 5625 5624 5617 5645 5649 5651 5691 5712 5730 5732 5733 5740 5744 5736
5486 5491 5502 5512 5516 5521 5528 5527 5528 5551 5569 5564 5570 5573 5579 5584 5586 5582 5588 5596 5607 5614 5612 5610 5607 5616 5622 5636 5627 5621 5633 5628 5615 5625 5649 5620 5649 5696 5714 5723 5727 5727 5728 5730 5727
5474 5482 5490 5501 5504 5506 5513 5518 5536 5550 5568 5559 5558 5565 5570 5573 5577 5576 5583 5595 5606 5604 5599 5609 5604 5616 5616 5624 5630 5613 5608 5639 5616 5587 5603 5651 5689 5709 5701 5700 5706 5716 5717 5717 5720
5462 5471 5481 5487 5491 5495 5499 5522 5541 5558 5558 5560 5557 5563 5569 5566 5562 5568 5581 5599 5594 5599 5601 5607 5594 5589 5593 5598 5606 5609 5626 5598 5601 5589 5595 5648 5665 5682 5696 5701 5704 5698 5704 5707 5705
5448 5456 5467 5472 5476 5482 5499 5520 5533 5543 5548 5549 5554 5559 5560 5551 5551 5553 5571 5583 5587 5588 5591 5595 5585 5572 5574 5585 5602 5591 5592 5596 5605 5607 5606 5617 5654 5703 5700 5696 5696 5690 5684 5686 5686
5438 5447 5452 5457 5465 5484 5497 5509 5517 5527 5534 5536 5544 5555 5554 5550 5550 5551 5559 5570 5571 5569 5569 5578 5576 5577 5579 5586 5584 5600 5605 5598 5588 5590 5592 5601 5641 5683 5689 5686 5676 5678 5677 5677 5672
5429 5439 5441 5442 5466 5486 5495 5500 5503 5511 5520 5524 5531 5542 5544 5543 5529 5543 5557 5564 5557 5556 5556 5556 5542 5547 5560 5568 5567 5572 5592 5589 5598 5583 5581 5582 5628 5685 5680 5668 5670 5667 5669 5667 5661
5417 5427 5430 5430 5463 5478 5483 5487 5492 5498 5506 5512 5519 5526 5527 5529 5531 5531 5535 5542 5543 5546 5538 5532 5521 5533 5558 5582 5578 5568 5573 5579 5573 5564 5588 5590 5625 5663 5664 5656 5663 5659 5654 5653 5654
5404 5425 5440 5435 5443 5460 5472 5485 5482 5485 5490 5496 5500 5510 5514 5509 5519 5528 5531 5531 5523 5526 5525 5517 5510 5520 5545 5556 5559 5557 5561 5568 5561 5571 5562 5600 5595 5641 5650 5645 5646 5648 5650 5652 5649
5395 5410 5417 5437 5450 5445 5449 5465 5471 5483 5480 5485 5491 5499 5498 5500 5514 5511 5503 5507 5520 5517 5515 5506 5511 5522 5528 5548 5547 5544 5553 5562 5570 5572 5569 5586 5589 5633 5637 5636 5631 5632 5633 5633 5630
5380 5396 5407 5425 5429 5435 5444 5460 5463 5461 5472 5477 5480 5478 5483 5486 5479 5482 5481 5482 5480 5478 5494 5489 5487 5491 5512 5529 5519 5507 5544 5563 5565 5569 5570 5560 5597 5607 5611 5616 5619 5624 5618 5613 5618